C/2015 X5 ( PanSTARRS )

Japanese version
Home page
Updated on September 23, 2018

---------------------------------------------------------------------

* Profile

Discovery Date December 6, 2015
Magnitude 21.3 mag
Discoverer Pan-STARRS 1 telescope (Haleakala)

* Pictures

* Orbital Elements

Epoch 2018 Jan. 2.0 TT = JDT 2458120.5
T 2017 Dec. 31.02648 TT                                 MPCW
q   6.8017447            (2000.0)            P               Q
z  -0.0004891      Peri.   27.75209     -0.25136266     +0.67028907
 +/-0.0000007      Node   122.31452     +0.66183385     -0.40735757
e   1.0033269      Incl.  124.29091     +0.70625263     +0.62030023
From 180 observations 2015 Dec. 6-2018 Sept. 16, mean residual 0".5.

* Magnitudes Graph

        m1 = 2.3 + 5 log d + 15.0 log r

---------------------------------------------------------------------

The orbital elements are published on M.P.E.C. 2018-S50.
The magnitudes graphs are made with Comet for Windows.

---------------------------------------------------------------------

Copyright(C) Seiichi Yoshida (comet@aerith.net). All rights reserved.